Wind_Speed
26 25 22 20 19 18 18 18 17 17 17 17 18 17 17 18 19 18 17 17 17 16 15 15 15 14 13 13 13 15 17 18 19 20 22 22 21 22 22 22 23 22
26 24 21 20 20 19 18 17 17 18 18 18 19 19 19 19 18 18 18 17 16 15 15 15 15 14 13 13 14 16 18 19 19 21 23 23 23 23 22 23 23 23
25 22 20 21 21 19 17 16 19 20 20 21 21 20 20 19 18 18 17 15 15 15 16 15 14 13 12 13 15 16 18 19 19 21 23 23 24 24 23 23 24 24
23 21 20 21 20 15 14 18 21 22 22 23 22 21 20 19 18 17 15 14 15 15 15 15 14 13 13 14 15 17 18 19 19 21 22 23 24 24 23 23 24 24
21 21 21 21 17 13 15 20 22 22 24 25 23 21 20 19 18 16 14 14 14 15 14 14 14 13 13 14 16 17 18 18 19 21 22 23 25 25 23 23 24 24
22 22 21 18 14 13 17 21 22 23 24 23 21 20 20 18 16 14 13 14 13 12 13 13 14 13 13 14 15 16 17 18 19 21 22 23 26 28 26 24 24 23
23 23 20 15 12 14 18 20 22 24 24 23 22 20 19 18 16 14 13 13 11 10 12 13 14 14 14 14 15 16 17 18 20 22 23 23 25 28 28 25 23 22
24 22 18 14 12 15 19 21 23 25 25 25 23 21 19 17 16 15 14 12 10 10 12 14 14 14 14 15 16 17 17 19 21 22 24 24 24 25 25 23 23 24
24 20 16 13 13 17 20 21 22 25 25 24 22 20 19 17 16 16 14 11 9 11 14 15 15 14 14 15 16 17 17 19 21 22 23 24 23 23 23 22 23 24
22 18 15 14 15 17 19 21 22 24 25 23 22 21 20 19 18 16 14 11 10 13 15 16 15 15 15 16 16 17 17 18 21 22 22 23 22 21 22 23 23 23
21 18 16 15 16 17 19 23 23 23 24 23 22 22 21 20 18 16 14 12 12 14 16 16 15 15 15 16 16 16 16 18 20 22 22 21 21 21 22 23 22 20
20 18 17 15 16 17 19 23 24 24 24 23 23 23 22 20 18 16 15 14 14 15 16 16 16 15 15 16 16 16 17 18 19 21 21 20 20 20 21 22 21 18
20 19 17 15 15 16 19 23 24 24 24 24 24 25 24 22 19 18 16 16 16 16 17 17 16 16 15 15 15 16 17 18 18 20 20 19 19 19 20 21 21 18
20 19 17 15 15 15 17 21 24 25 25 24 24 25 26 24 22 19 17 17 17 17 17 17 17 16 15 14 14 16 17 17 18 19 19 18 18 19 19 20 19 17
20 20 18 16 15 14 15 19 23 25 26 25 25 27 28 27 23 19 18 18 18 18 17 17 17 16 14 14 14 16 16 16 17 18 18 18 18 18 18 19 17 14
20 21 19 16 15 14 13 16 21 25 26 26 27 28 29 27 23 19 18 18 18 18 17 17 16 15 14 14 15 15 15 16 17 18 18 18 17 17 17 18 16 13
21 21 19 17 15 13 13 15 19 23 24 25 24 24 25 25 23 20 19 18 18 17 17 17 15 14 14 14 14 15 15 15 16 17 18 17 16 15 15 16 15 12
21 21 20 17 15 14 14 16 18 21 23 23 21 21 24 26 24 23 21 19 18 17 17 16 15 14 14 14 14 15 15 15 15 16 17 16 14 13 13 14 13 11
21 22 20 18 17 16 16 17 18 19 21 22 23 23 25 27 28 27 23 19 18 17 17 16 15 15 14 13 14 15 15 15 15 15 15 15 13 12 12 12 11 9
22 22 19 18 18 17 18 18 18 19 19 21 24 25 25 27 30 28 23 19 18 17 16 16 15 15 14 14 14 15 15 15 15 14 14 13 12 11 10 11 10 8
23 21 19 18 18 18 18 17 18 19 19 20 23 23 24 28 31 28 22 20 19 17 16 16 16 16 15 14 15 15 15 15 14 13 13 12 11 10 9 9 8 6
23 21 18 18 17 16 17 16 17 19 20 20 20 22 25 30 31 27 22 21 19 16 16 16 16 16 15 15 15 15 15 15 14 12 12 11 10 9 8 7 6 4
22 19 17 15 13 12 12 13 15 18 20 19 20 24 28 30 29 25 21 20 18 16 15 16 17 17 16 16 16 16 16 15 13 12 11 10 10 9 7 6 5 5
21 18 15 12 11 9 9 10 12 14 17 18 21 27 29 27 24 22 20 18 17 15 15 17 18 18 17 16 16 16 16 15 14 12 10 9 9 8 7 6 6 6
19 16 13 12 11 10 10 11 12 13 15 17 21 25 24 21 19 19 19 17 16 15 16 18 20 19 18 17 17 17 17 16 15 12 10 9 10 9 7 7 7 6
18 15 13 12 11 11 10 11 13 14 15 15 16 17 15 15 16 17 17 16 16 16 18 19 20 20 19 18 18 18 18 17 15 12 10 10 10 9 6 6 7 7
Wind_Direction
216 223 229 237 243 244 245 244 242 241 236 227 226 227 224 226 232 236 240 244 247 250 255 261 268 272 276 281 287 292 295 297 296 298 301 303 304 300 296 295 295 294
217 223 229 237 239 240 241 240 238 234 226 222 225 226 226 229 233 237 241 244 245 250 256 263 269 273 278 283 288 294 296 299 300 300 301 303 305 304 301 296 295 294
217 222 229 234 235 236 241 241 237 229 220 219 223 225 227 231 234 237 239 240 244 251 259 267 273 276 279 283 289 294 297 300 303 303 302 304 305 306 305 302 300 296
216 221 226 229 230 237 246 242 236 227 219 219 221 222 226 229 232 233 233 236 247 257 264 271 275 276 279 284 291 296 298 302 304 305 304 305 305 304 303 302 298 292
215 220 225 227 230 238 241 237 233 226 220 219 218 219 223 226 226 226 229 239 251 260 267 272 274 276 281 287 293 296 297 302 304 306 306 306 305 302 302 304 299 293
212 219 224 228 232 235 235 235 231 223 219 217 215 216 220 222 220 220 229 241 253 263 270 273 274 278 284 289 293 294 297 302 304 306 307 306 307 305 306 311 311 307
214 221 224 227 233 234 234 233 225 218 216 215 215 216 217 215 213 216 228 240 252 264 270 273 274 278 284 290 294 295 297 301 302 305 307 307 309 307 308 315 318 311
217 223 225 228 233 232 230 226 220 215 215 216 217 217 213 209 210 217 227 236 248 262 269 272 275 279 285 290 293 294 296 300 302 305 306 307 310 309 309 316 318 309
220 224 226 229 230 231 229 223 219 217 216 217 218 214 210 208 210 219 227 234 246 260 267 271 274 279 284 288 290 292 296 301 304 306 306 308 312 314 312 314 314 310
220 224 225 229 230 231 228 221 218 218 216 217 217 213 210 209 213 221 230 238 249 260 266 269 273 277 284 288 289 293 299 304 306 307 309 311 314 316 315 313 312 310
221 226 226 230 232 230 223 216 215 215 214 216 218 217 213 212 216 225 233 241 251 259 264 267 271 277 285 289 292 296 303 306 306 308 310 313 317 318 314 313 314 312
223 227 228 230 232 230 222 215 213 212 211 212 216 220 220 217 221 228 234 242 251 258 263 267 273 280 287 290 293 299 304 305 304 306 311 315 319 318 314 314 318 316
226 227 228 231 232 231 223 216 214 214 213 211 213 221 225 223 225 230 235 242 250 256 260 266 275 282 287 290 294 299 303 305 304 306 312 318 318 317 316 315 318 316
227 227 228 232 232 230 223 218 217 217 217 215 214 221 227 226 226 229 234 243 249 253 257 265 275 282 288 292 293 298 303 305 305 307 314 319 318 317 316 315 316 315
226 227 228 230 233 231 225 222 221 221 221 220 219 222 226 226 225 227 234 242 247 251 258 266 276 284 289 289 289 298 305 304 304 309 315 318 318 317 315 316 317 313
224 228 229 231 236 237 233 228 225 224 224 223 225 226 227 227 226 226 233 239 243 249 260 270 278 284 285 284 289 299 305 303 304 310 314 317 318 317 316 318 318 311
224 228 228 232 238 241 238 232 228 228 227 227 230 234 235 235 231 227 229 234 238 248 264 273 279 281 279 282 291 299 302 302 303 307 311 315 317 316 316 318 318 314
226 228 228 233 241 246 244 238 233 233 231 228 231 238 243 245 241 234 229 230 236 249 266 274 276 275 275 282 290 295 298 299 300 303 309 312 312 312 314 318 320 320
228 229 231 239 247 252 251 248 243 239 234 227 225 230 238 241 241 238 232 229 235 249 266 274 274 273 275 280 287 290 293 294 296 299 304 307 307 311 316 320 324 325
229 231 235 241 248 252 254 253 250 245 238 229 224 225 231 235 236 236 233 230 235 250 266 274 274 272 275 278 282 285 287 289 292 296 300 303 306 314 322 323 328 332
230 233 235 241 251 258 259 258 253 246 239 233 228 226 229 233 233 232 231 230 237 251 266 272 272 271 273 275 278 281 282 284 288 291 294 299 305 315 322 324 333 342
232 233 237 246 257 262 261 258 250 245 241 238 237 234 231 232 231 229 228 230 238 252 265 271 271 270 271 273 274 276 277 279 283 286 290 295 302 312 320 325 334 338
230 233 240 250 256 259 258 253 246 245 244 242 243 242 237 232 229 227 227 231 241 254 264 271 272 269 269 270 270 270 271 274 276 279 283 290 296 306 316 323 328 325
227 232 241 249 252 252 251 247 241 239 240 239 237 235 231 226 224 225 227 234 245 256 266 272 272 269 268 267 266 265 267 269 270 272 278 284 291 299 311 320 326 328
224 231 241 247 245 242 239 240 238 236 238 237 231 226 222 217 219 226 232 240 250 260 270 274 273 270 267 266 264 262 264 266 266 268 273 281 288 296 305 313 321 326
221 230 241 244 244 244 242 243 244 241 240 238 231 226 221 218 223 234 243 251 258 266 271 274 274 271 266 264 262 259 260 262 263 265 272 281 290 296 300 309 317 319
Height
3111 3113 3114 3115 3117 3119 3121 3123 3126 3126 3127 3128 3131 3132 3134 3135 3136 3138 3139 3141 3142 3143 3143 3144 3144 3145 3145 3145 3146 3145 3145 3144 3144 3143 3143 3143 3143 3142 3141 3140 3139 3140
3109 3111 3112 3113 3115 3117 3120 3123 3124 3125 3126 3127 3129 3131 3132 3134 3135 3137 3139 3140 3141 3142 3142 3143 3143 3143 3144 3144 3144 3144 3143 3143 3142 3141 3140 3140 3140 3140 3140 3139 3138 3138
3107 3108 3110 3111 3112 3116 3121 3123 3123 3122 3124 3126 3127 3129 3131 3133 3134 3136 3138 3139 3140 3141 3141 3142 3142 3142 3142 3142 3142 3142 3141 3141 3140 3139 3138 3138 3138 3138 3138 3137 3137 3136
3105 3106 3107 3108 3112 3118 3122 3121 3120 3121 3123 3124 3125 3127 3130 3131 3133 3135 3137 3138 3139 3140 3140 3141 3141 3141 3141 3141 3140 3140 3140 3139 3139 3138 3137 3136 3136 3136 3136 3136 3135 3134
3102 3103 3104 3108 3114 3120 3120 3118 3118 3120 3122 3122 3124 3126 3128 3130 3132 3134 3136 3137 3138 3139 3139 3139 3139 3139 3139 3139 3139 3138 3138 3138 3137 3136 3135 3135 3133 3132 3133 3134 3131 3130
3099 3100 3104 3110 3115 3118 3117 3116 3118 3119 3120 3121 3123 3125 3127 3129 3131 3133 3135 3136 3137 3138 3138 3138 3138 3138 3137 3137 3137 3137 3136 3136 3135 3134 3134 3133 3131 3128 3129 3131 3128 3126
3096 3100 3105 3110 3114 3115 3114 3115 3116 3117 3119 3120 3122 3124 3126 3128 3130 3132 3134 3135 3136 3136 3137 3137 3136 3136 3136 3136 3135 3135 3135 3134 3133 3132 3131 3132 3130 3126 3125 3127 3125 3124
3095 3100 3105 3109 3111 3112 3111 3113 3114 3116 3117 3119 3122 3124 3126 3127 3129 3130 3132 3133 3134 3135 3135 3135 3135 3135 3134 3134 3134 3133 3133 3132 3131 3130 3129 3128 3128 3125 3123 3124 3123 3121
3095 3100 3103 3107 3109 3109 3109 3111 3113 3114 3116 3119 3121 3123 3125 3126 3127 3129 3130 3132 3133 3134 3134 3134 3133 3133 3133 3132 3132 3132 3131 3130 3129 3128 3126 3125 3124 3123 3121 3122 3121 3118
3094 3099 3102 3105 3106 3107 3108 3110 3111 3113 3115 3118 3120 3122 3124 3125 3126 3128 3129 3130 3132 3132 3133 3132 3132 3131 3131 3131 3130 3130 3129 3128 3126 3125 3124 3122 3122 3121 3119 3119 3119 3117
3093 3097 3100 3103 3105 3105 3107 3109 3110 3112 3114 3116 3119 3121 3123 3124 3125 3126 3127 3129 3130 3131 3131 3131 3130 3130 3129 3129 3128 3128 3127 3126 3124 3122 3121 3120 3120 3119 3118 3117 3116 3116
3091 3095 3098 3101 3103 3104 3106 3108 3109 3111 3112 3115 3118 3120 3122 3123 3123 3124 3126 3128 3129 3129 3129 3129 3128 3128 3128 3127 3126 3126 3124 3123 3122 3120 3119 3118 3118 3117 3116 3114 3114 3113
3089 3093 3096 3098 3100 3103 3105 3106 3108 3109 3111 3113 3115 3118 3120 3120 3121 3123 3125 3126 3127 3127 3127 3127 3127 3127 3126 3125 3125 3123 3122 3121 3119 3118 3117 3117 3115 3114 3114 3112 3111 3111
3088 3092 3094 3096 3098 3101 3103 3105 3107 3108 3110 3111 3113 3115 3117 3119 3120 3122 3123 3124 3125 3125 3126 3126 3125 3125 3124 3123 3122 3121 3120 3118 3117 3116 3115 3115 3113 3112 3112 3110 3110 3109
3086 3089 3092 3094 3096 3099 3101 3104 3106 3107 3109 3111 3112 3114 3116 3118 3119 3120 3122 3123 3123 3124 3124 3124 3124 3123 3122 3121 3120 3119 3118 3116 3115 3114 3113 3112 3111 3110 3109 3108 3108 3107
3085 3087 3089 3091 3094 3097 3100 3102 3104 3106 3108 3110 3111 3113 3115 3117 3118 3119 3120 3121 3122 3122 3123 3122 3122 3122 3120 3119 3118 3117 3116 3115 3113 3112 3111 3111 3110 3109 3107 3106 3106 3105
3084 3086 3087 3090 3092 3094 3097 3100 3101 3103 3105 3107 3109 3112 3114 3115 3116 3117 3119 3120 3120 3121 3121 3121 3120 3120 3118 3117 3115 3115 3114 3113 3111 3110 3110 3109 3108 3107 3106 3105 3104 3103
3082 3084 3086 3088 3090 3092 3095 3096 3098 3100 3102 3104 3107 3110 3113 3114 3115 3117 3119 3119 3119 3119 3119 3119 3119 3117 3116 3114 3113 3112 3112 3111 3110 3109 3108 3107 3107 3106 3105 3104 3103 3102
3081 3083 3085 3087 3089 3090 3092 3093 3096 3098 3101 3103 3105 3108 3111 3113 3115 3117 3119 3117 3117 3117 3117 3117 3116 3115 3113 3112 3111 3110 3109 3109 3108 3107 3106 3106 3106 3105 3104 3103 3102 3102
3080 3082 3084 3086 3087 3088 3090 3092 3094 3095 3098 3101 3103 3106 3109 3112 3114 3116 3117 3115 3115 3115 3115 3115 3114 3112 3111 3110 3109 3108 3107 3107 3106 3106 3105 3104 3104 3104 3103 3102 3101 3101
3078 3081 3083 3084 3085 3086 3088 3090 3091 3093 3096 3098 3101 3104 3107 3110 3112 3114 3113 3112 3112 3113 3113 3112 3111 3110 3109 3108 3107 3106 3106 3105 3104 3104 3103 3103 3102 3102 3102 3101 3101 3100
3077 3080 3082 3083 3084 3085 3086 3087 3089 3091 3093 3095 3098 3101 3104 3107 3110 3110 3109 3109 3110 3111 3111 3110 3108 3107 3106 3105 3104 3104 3103 3103 3103 3102 3102 3101 3101 3101 3101 3101 3100 3100
3075 3078 3080 3081 3083 3084 3085 3086 3087 3089 3091 3093 3096 3099 3103 3106 3107 3107 3106 3107 3108 3108 3108 3107 3105 3104 3104 3103 3102 3102 3101 3101 3101 3100 3100 3100 3099 3100 3100 3100 3100 3099
3074 3076 3078 3080 3082 3083 3084 3084 3086 3087 3089 3091 3094 3098 3102 3104 3104 3103 3104 3105 3105 3105 3105 3104 3103 3102 3101 3100 3100 3100 3099 3099 3099 3099 3099 3098 3098 3099 3099 3099 3099 3099
3073 3075 3077 3078 3080 3082 3083 3084 3085 3087 3089 3091 3094 3096 3097 3098 3099 3100 3101 3102 3102 3102 3102 3101 3100 3099 3098 3098 3098 3098 3097 3097 3097 3098 3098 3097 3097 3098 3098 3098 3098 3098
3072 3074 3075 3076 3077 3079 3081 3083 3085 3087 3088 3089 3091 3092 3092 3093 3096 3097 3097 3098 3099 3099 3099 3098 3097 3096 3096 3096 3096 3096 3096 3096 3096 3096 3096 3096 3096 3097 3097 3097 3097 3097